Montpelier, VT

8:42 PM EDT on June 21, 2018 (GMT -0400)
Knapp State

Weather History for KMPV - June, 2018

Change the Weather History Date:

Thursday, June 14, 2018

  Actual Average Record
Temperature  
Mean Temperature 60 °F 62 °F  
Max Temperature 65 °F 74 °F 91 °F (1956)
Min Temperature 54 °F 51 °F 35 °F (1970)
Degree Days  
Heating Degree Days 5 4  
Month to date heating degree days 114 78  
Since 1 June heating degree days 114 78  
Since 1 July heating degree days 8005 8138  
Cooling Degree Days 0 2  
Month to date cooling degree days 12 17  
Year to date cooling degree days 16 27  
Since 1 June cooling degree days 12 17  
Growing Degree Days 9 (Base 50)    
Moisture  
Dew Point 55 °F    
Average Humidity 84    
Maximum Humidity 100    
Minimum Humidity 67    
Precipitation  
Precipitation 0.03 in 0.13 in 1.33 in (2008)
Month to date precipitation 0.38 1.79  
Year to date precipitation 15.04 14.70  
Sea Level Pressure  
Sea Level Pressure 29.75 in    
Wind  
Wind Speed 8 mph (WNW)    
Max Wind Speed 16 mph    
Max Gust Speed 27 mph    
Visibility 9 miles    
Events Rain    
T = Trace of Precipitation, MM = Missing Value Source: NWS Daily Summary

Daily Weather History Graph

Daily Weather History Graph

Search for Another Location

Airport or City:

Astronomy

Jun. 14, 2018 Rise Set
Actual Time 5:06 AM EDT 8:35 PM EDT
Civil Twilight 4:29 AM EDT 9:11 PM EDT
Nautical Twilight 3:41 AM EDT 9:59 PM EDT
Astronomical Twilight 2:40 AM EDT 11:01 PM EDT
Moon 6:02 AM EDT (6/14) 9:30 PM EDT (6/14)
Length of Visible Light 16h 42m
Length of Day
15h 29m
New Moon, 1% of the Moon is Illuminated
Jun 14
New Moon
Jun 20
First Quarter
Jun 28
Full
Jul 6
Last Quarter
Jul 12
New

Hourly Weather History & Observations

Time (EDT) Temp. Dew Point Humidity Pressure Visibility Wind Dir Wind Speed Gust Speed Precip Events Conditions
12:51 AM 64.9 °F 62.1 °F 90% 29.64 in 10.0 mi WSW 8.1 mph 18.4 mph N/A   Scattered Clouds
1:51 AM 64.0 °F 57.0 °F 78% 29.62 in 10.0 mi WSW 10.4 mph 21.9 mph N/A   Partly Cloudy
2:51 AM 64.0 °F 54.0 °F 70% 29.62 in 10.0 mi West 10.4 mph 26.5 mph N/A   Mostly Cloudy
3:51 AM 62.1 °F 53.1 °F 72% 29.62 in 10.0 mi WSW 8.1 mph - N/A   Mostly Cloudy
4:51 AM 61.0 °F 52.0 °F 72% 29.62 in 10.0 mi SW 8.1 mph 17.3 mph N/A   Overcast
5:51 AM 60.1 °F 54.0 °F 80% 29.63 in 10.0 mi Variable 6.9 mph - N/A   Overcast
6:51 AM 59.0 °F 55.0 °F 87% 29.63 in 10.0 mi WSW 9.2 mph - 0.00 in   Overcast
7:51 AM 57.9 °F 55.9 °F 93% 29.65 in 5.0 mi Variable 6.9 mph 17.3 mph 0.00 in Rain Light Rain
8:27 AM 59.0 °F 55.9 °F 90% 29.66 in 10.0 mi WSW 8.1 mph - 0.00 in   Overcast
8:51 AM 59.0 °F 55.9 °F 90% 29.66 in 6.0 mi WSW 8.1 mph - 0.00 in Rain Light Rain
8:59 AM 59.0 °F 55.9 °F 90% 29.66 in 8.0 mi West 6.9 mph - 0.00 in   Overcast
9:43 AM 57.9 °F 55.9 °F 93% 29.68 in 9.0 mi West 6.9 mph - 0.01 in   Overcast
9:51 AM 57.9 °F 55.9 °F 93% 29.68 in 10.0 mi Variable 6.9 mph - 0.01 in   Overcast
10:51 AM 60.1 °F 55.0 °F 83% 29.70 in 10.0 mi West 10.4 mph 18.4 mph 0.00 in   Overcast
11:51 AM 59.0 °F 55.0 °F 87% 29.71 in 10.0 mi West 6.9 mph - N/A   Overcast
12:49 PM 60.8 °F 55.4 °F 82% 29.72 in 10.0 mi WNW 12.7 mph 19.6 mph N/A   Overcast
12:51 PM 61.0 °F 54.0 °F 78% 29.72 in 10.0 mi NW 12.7 mph - N/A   Overcast
1:04 PM 61.0 °F 54.0 °F 78% 29.72 in 10.0 mi WNW 10.4 mph 23.0 mph N/A   Overcast
1:51 PM 61.0 °F 54.0 °F 78% 29.73 in 10.0 mi WNW 11.5 mph - N/A   Overcast
2:51 PM 62.1 °F 54.0 °F 75% 29.74 in 10.0 mi WNW 11.5 mph - N/A   Overcast
3:51 PM 61.0 °F 54.0 °F 78% 29.77 in 10.0 mi NW 11.5 mph - N/A   Overcast
4:51 PM 59.0 °F 55.9 °F 90% 29.79 in 9.0 mi West 6.9 mph - 0.00 in Rain Light Rain
5:51 PM 59.0 °F 57.0 °F 93% 29.81 in 10.0 mi WNW 6.9 mph - 0.01 in   Overcast
6:44 PM 57.9 °F 55.9 °F 93% 29.82 in 10.0 mi NNW 5.8 mph - N/A   Overcast
6:51 PM 57.9 °F 55.9 °F 93% 29.82 in 10.0 mi NNW 6.9 mph - N/A   Overcast
7:15 PM 57.9 °F 55.9 °F 93% 29.83 in 10.0 mi NW 5.8 mph - N/A   Overcast
7:51 PM 57.9 °F 55.9 °F 93% 29.83 in 10.0 mi NW 4.6 mph - N/A   Overcast
8:51 PM 55.9 °F 55.9 °F 100% 29.85 in 8.0 mi NW 9.2 mph - 0.00 in   Overcast
9:15 PM 55.9 °F 55.9 °F 100% 29.85 in 7.0 mi WNW 8.1 mph - N/A   Overcast
9:26 PM 55.9 °F 55.9 °F 100% 29.86 in 7.0 mi NW 6.9 mph - N/A   Overcast
9:51 PM 55.9 °F 55.9 °F 100% 29.87 in 10.0 mi North 5.8 mph - 0.01 in Rain Light Rain
9:56 PM 55.0 °F 55.0 °F 100% 29.87 in 10.0 mi North 5.8 mph - 0.00 in   Overcast
10:46 PM 55.4 °F 55.4 °F 100% 29.87 in 10.0 mi Calm Calm - 0.00 in   Overcast
10:51 PM 55.0 °F 55.0 °F 100% 29.88 in 10.0 mi Calm Calm - 0.00 in   Overcast
11:00 PM 55.0 °F 55.0 °F 100% 29.88 in 10.0 mi Calm Calm - N/A   Overcast
11:39 PM 54.0 °F 54.0 °F 100% 29.88 in 10.0 mi Calm Calm - N/A   Overcast
11:51 PM 54.0 °F 54.0 °F 100% 29.90 in 10.0 mi Calm Calm - N/A   Overcast